COSMOS 252 DEB, 3551

Orbit data source: Space-Track

COSMOS 252 DEB, 3551 is space debris in LEO originally from a launch on Fri, 01 Nov 1968 UTC launched from the Tyuratam Missile And Space Complex (TTMTR). Debris objects in space refer to the collection of defunct objects orbiting the Earth. Examples of debris include non-operational satellites, rocket bodies, and fragments generated from explosions, collisions, or faulty payload assembly.

Loading next visibility...
Identifier
3551, 1968-097D
Orbit
LEO
Country
Flag of CISCIS
Related business
Manufacturer
Unknown
Mission
Spacecraft
Bus & Motor
Unknown
Mass
Unknown
Launch date (UTC)
1968-11-01 (57 years ago)
Launch vehicle
Unknown
Launch site
Tyuratam Missile And Space Complex (TTMTR)
Object type
Payload
Rocket body
Debris
Shape & HBR
Unknown shape, 0.1 m
Radar Cross Section
Small (<0.1 m²)

Expand to show TLE details & history
Last TLE update: 7 hours ago

TLE from 7 hours ago
0 COSMOS 252 DEB
1  3551U 68097D   25308.34603292  .00002515  00000-0  54365-3 0  9990
2  3551  62.2835  21.5824 0630764  93.9950 273.3388 13.79999233777500
Epoch: 2025-11-04T08:18Z
TLE epoch observation values (Epoch: 2025-11-04T08:18:17.244Z)
Latitude
-0.00003°
Longitude
-146.82384°
Altitude
967.823 km
Speed
7.367 km/s
True Right ascension
01h 26m 19s
True Declination
0° 00' 00"
Sunlit
Object was in full shadow at epoch
Visualization orbit readout
Latitude
Unknown
Longitude
Unknown
Altitude
Unknown
Speed
Unknown
Apparent Right ascension
Unknown
Apparent Declination
Unknown
Sunlit
N/A
Visualization observer readout
Local Sidereal Time
11:02:37
Azimuth
Unknown
Elevation
Unknown
Doppler factor
Unknown
Orbital elements
Apogee altitude
1,425.877 km
Perigee altitude
499.793 km
Semi-major axis
7,340.972 km
Eccentricity
0.06308
Inclination
62.2835°
RAAN
21.5824°
Arg. of periapsis
93.995°
True anomaly
266.10901°
Mean anomaly
273.3388°
Eccentric anomaly
269.72483°
Mean motion
3.45074 °/min
Orbital period
104.33 mins
BSTAR
0.00054365

Documentation

Showing up to 5 results
|